TimeMST,TemperatureF,Dew PointF,Humidity,Sea Level PressureIn,VisibilityMPH,Wind Direction,Wind SpeedMPH,Gust SpeedMPH,PrecipitationIn,Events,Conditions,WindDirDegrees,DateUTC
12:53 AM,6.1,3.0,87,30.45,10.0,South,3.5,-,N/A,,Clear,170,2013-02-03 07:53:00
1:53 AM,8.1,3.9,83,30.40,10.0,South,3.5,-,N/A,,Clear,190,2013-02-03 08:53:00
2:53 AM,7.0,3.0,84,30.36,10.0,East,3.5,-,N/A,,Clear,90,2013-02-03 09:53:00
3:53 AM,6.1,3.0,87,30.35,9.0,Calm,Calm,-,N/A,,Clear,0,2013-02-03 10:53:00
4:53 AM,5.0,1.9,87,30.32,10.0,Calm,Calm,-,N/A,,Clear,0,2013-02-03 11:53:00
5:53 AM,6.1,1.9,83,30.33,10.0,South,4.6,-,N/A,,Clear,190,2013-02-03 12:53:00
6:53 AM,8.1,5.0,87,30.33,10.0,Variable,4.6,-,N/A,,Clear,0,2013-02-03 13:53:00
7:53 AM,5.0,1.9,87,30.35,10.0,Calm,Calm,-,N/A,,Clear,0,2013-02-03 14:53:00
8:53 AM,8.1,5.0,87,30.35,10.0,Calm,Calm,-,N/A,,Clear,0,2013-02-03 15:53:00
9:53 AM,10.9,7.0,84,30.33,10.0,ESE,4.6,-,N/A,,Clear,110,2013-02-03 16:53:00
10:53 AM,12.9,10.0,88,30.32,10.0,Calm,Calm,-,N/A,,Clear,0,2013-02-03 17:53:00
11:53 AM,19.0,14.0,81,30.30,10.0,Calm,Calm,-,N/A,,Clear,0,2013-02-03 18:53:00
12:53 PM,25.0,15.1,66,30.27,10.0,SSE,3.5,-,N/A,,Clear,150,2013-02-03 19:53:00
1:53 PM,33.1,16.0,50,30.19,10.0,NNW,3.5,-,N/A,,Clear,330,2013-02-03 20:53:00
2:53 PM,39.0,16.0,39,30.17,10.0,North,5.8,-,N/A,,Clear,360,2013-02-03 21:53:00
3:53 PM,39.9,16.0,38,30.17,10.0,WNW,3.5,-,N/A,,Clear,300,2013-02-03 22:53:00
4:53 PM,34.0,17.1,50,30.17,10.0,South,5.8,-,N/A,,Clear,180,2013-02-03 23:53:00
5:53 PM,27.0,15.1,61,30.21,10.0,Calm,Calm,-,N/A,,Partly Cloudy,0,2013-02-04 00:53:00
6:53 PM,21.0,12.9,71,30.24,10.0,Calm,Calm,-,N/A,,Clear,0,2013-02-04 01:53:00
7:53 PM,19.9,12.9,74,30.25,10.0,Calm,Calm,-,N/A,,Clear,0,2013-02-04 02:53:00
8:53 PM,17.1,10.9,77,30.23,10.0,Calm,Calm,-,N/A,,Clear,0,2013-02-04 03:53:00
9:53 PM,18.0,10.9,74,30.22,10.0,Calm,Calm,-,N/A,,Clear,0,2013-02-04 04:53:00
10:53 PM,19.0,12.9,77,30.20,10.0,NW,3.5,-,N/A,,Partly Cloudy,320,2013-02-04 05:53:00
11:53 PM,17.1,10.9,77,30.18,10.0,ENE,3.5,-,N/A,,Overcast,70,2013-02-04 06:53:00